Time,TemperatureF,DewpointF,PressureIn,WindDirection,WindDirectionDegrees,WindSpeedMPH,WindSpeedGustMPH,Humidity,HourlyPrecipIn,Conditions,Clouds,dailyrainin,SoftwareType,DateUTC
2013-05-31 00:02:00,65.0,63.0,-100.00,SSW,195,4.0,17.0,93,-99.99,,,-99.99,,2013-05-31 05:02:00,
2013-05-31 00:12:00,65.0,63.0,-100.00,SSW,205,8.0,14.0,93,-99.99,,,-99.99,,2013-05-31 05:12:00,
2013-05-31 00:22:00,65.0,63.0,-100.00,SSW,205,8.0,14.0,93,-99.99,,,-99.99,,2013-05-31 05:22:00,
2013-05-31 00:32:00,65.0,63.0,-100.00,SSW,210,10.0,15.0,93,-99.99,,,-99.99,,2013-05-31 05:32:00,
2013-05-31 00:42:00,65.0,63.0,-100.00,SW,215,11.0,19.0,93,-99.99,,,-99.99,,2013-05-31 05:42:00,
2013-05-31 00:52:00,65.0,63.0,-100.00,SW,215,11.0,19.0,93,-99.99,,,-99.99,,2013-05-31 05:52:00,
2013-05-31 01:02:00,65.0,63.0,-100.00,SW,220,10.0,19.0,93,-99.99,,,-99.99,,2013-05-31 06:02:00,
2013-05-31 01:12:00,65.0,63.0,-100.00,SW,225,6.0,15.0,93,-99.99,,,-99.99,,2013-05-31 06:12:00,
2013-05-31 01:21:00,65.0,63.0,-100.00,SW,225,6.0,15.0,93,-99.99,,,-99.99,,2013-05-31 06:21:00,
2013-05-31 01:31:00,65.0,63.0,-100.00,SW,230,9.0,14.0,93,-99.99,,,-99.99,,2013-05-31 06:31:00,
2013-05-31 01:41:00,64.0,62.0,-100.00,SW,235,4.0,12.0,93,-99.99,,,-99.99,,2013-05-31 06:41:00,
2013-05-31 01:52:00,64.0,62.0,-100.00,SW,235,4.0,12.0,93,-99.99,,,-99.99,,2013-05-31 06:52:00,
2013-05-31 02:02:00,64.0,62.0,-100.00,WSW,245,6.0,12.0,93,-99.99,,,-99.99,,2013-05-31 07:02:00,
2013-05-31 02:11:00,64.0,62.0,-100.00,WSW,250,4.0,9.0,93,-99.99,,,-99.99,,2013-05-31 07:11:00,
2013-05-31 02:21:00,64.0,62.0,-100.00,WSW,250,4.0,9.0,93,-99.99,,,-99.99,,2013-05-31 07:21:00,
2013-05-31 02:32:00,64.0,62.0,-100.00,WSW,245,2.0,8.0,93,-99.99,,,-99.99,,2013-05-31 07:32:00,
2013-05-31 02:41:00,64.0,62.0,-100.00,WSW,255,2.0,6.0,93,-99.99,,,-99.99,,2013-05-31 07:41:00,
2013-05-31 02:52:00,64.0,62.0,-100.00,WSW,255,2.0,6.0,93,-99.99,,,-99.99,,2013-05-31 07:52:00,
2013-05-31 03:02:00,64.0,62.0,-100.00,West,260,4.0,7.0,93,-99.99,,,-99.99,,2013-05-31 08:02:00,
2013-05-31 03:11:00,65.0,63.0,-100.00,West,270,8.0,11.0,93,-99.99,,,-99.99,,2013-05-31 08:11:00,
2013-05-31 03:22:00,65.0,63.0,-100.00,West,270,8.0,11.0,93,-99.99,,,-99.99,,2013-05-31 08:22:00,
2013-05-31 03:32:00,66.0,64.0,-100.00,West,280,6.0,11.0,93,-99.99,,,-99.99,,2013-05-31 08:32:00,
2013-05-31 03:42:00,66.0,64.0,-100.00,WNW,285,6.0,12.0,93,-99.99,,,-99.99,,2013-05-31 08:42:00,
2013-05-31 03:52:00,66.0,64.0,-100.00,WNW,285,6.0,12.0,93,-99.99,,,-99.99,,2013-05-31 08:52:00,
2013-05-31 04:01:00,66.0,64.0,-100.00,WNW,300,6.0,12.0,93,-99.99,,,-99.99,,2013-05-31 09:01:00,
2013-05-31 04:11:00,66.0,64.0,-100.00,WNW,300,7.0,11.0,93,-99.99,,,-99.99,,2013-05-31 09:11:00,
2013-05-31 04:21:00,66.0,64.0,-100.00,WNW,300,7.0,11.0,93,-99.99,,,-99.99,,2013-05-31 09:21:00,
2013-05-31 04:32:00,66.0,64.0,-100.00,WNW,300,8.0,14.0,93,-99.99,,,-99.99,,2013-05-31 09:32:00,
2013-05-31 04:43:00,66.0,64.0,-100.00,NW,310,6.0,16.0,93,-99.99,,,-99.99,,2013-05-31 09:43:00,
2013-05-31 04:53:00,66.0,64.0,-100.00,NW,310,6.0,16.0,93,-99.99,,,-99.99,,2013-05-31 09:53:00,
2013-05-31 05:02:00,66.0,64.0,-100.00,NW,310,3.0,10.0,93,-99.99,,,-99.99,,2013-05-31 10:02:00,
2013-05-31 05:12:00,66.0,64.0,-100.00,NW,310,4.0,12.0,93,-99.99,,,-99.99,,2013-05-31 10:12:00,
2013-05-31 05:22:00,66.0,64.0,-100.00,NW,310,4.0,12.0,93,-99.99,,,-99.99,,2013-05-31 10:22:00,
2013-05-31 05:33:00,66.0,64.0,-100.00,NW,305,4.0,9.0,93,-99.99,,,-99.99,,2013-05-31 10:33:00,
2013-05-31 05:42:00,66.0,64.0,-100.00,NW,305,6.0,9.0,93,-99.99,,,-99.99,,2013-05-31 10:42:00,
2013-05-31 05:52:00,66.0,64.0,-100.00,NW,305,6.0,9.0,93,-99.99,,,-99.99,,2013-05-31 10:52:00,
2013-05-31 06:02:00,65.0,63.0,-100.00,WNW,300,6.0,11.0,93,-99.99,,,-99.99,,2013-05-31 11:02:00,
2013-05-31 06:11:00,65.0,63.0,-100.00,NW,305,7.0,11.0,93,-99.99,,,-99.99,,2013-05-31 11:11:00,
2013-05-31 06:22:00,65.0,63.0,-100.00,NW,305,7.0,11.0,93,-99.99,,,-99.99,,2013-05-31 11:22:00,
2013-05-31 06:32:00,65.0,63.0,-100.00,NW,305,10.0,16.0,93,-99.99,,,-99.99,,2013-05-31 11:32:00,
2013-05-31 06:42:00,65.0,63.0,-100.00,WNW,295,4.0,14.0,93,-99.99,,,-99.99,,2013-05-31 11:42:00,
2013-05-31 06:52:00,65.0,63.0,-100.00,WNW,295,4.0,14.0,93,-99.99,,,-99.99,,2013-05-31 11:52:00,
2013-05-31 07:01:00,65.0,63.0,-100.00,West,270,9.0,14.0,93,-99.99,,,-99.99,,2013-05-31 12:01:00,
2013-05-31 07:11:00,65.0,63.0,-100.00,WNW,300,7.0,18.0,93,-99.99,,,-99.99,,2013-05-31 12:11:00,
2013-05-31 07:21:00,65.0,63.0,-100.00,WNW,300,7.0,18.0,93,-99.99,,,-99.99,,2013-05-31 12:21:00,
2013-05-31 07:31:00,66.0,64.0,-100.00,WNW,290,6.0,11.0,93,-99.99,,,-99.99,,2013-05-31 12:31:00,
2013-05-31 07:41:00,65.0,63.0,-100.00,SW,235,9.0,15.0,93,-99.99,,,-99.99,,2013-05-31 12:41:00,
2013-05-31 07:52:00,65.0,63.0,-100.00,SW,235,9.0,15.0,93,-99.99,,,-99.99,,2013-05-31 12:52:00,
2013-05-31 08:01:00,66.0,64.0,-100.00,West,270,9.0,19.0,93,-99.99,,,-99.99,,2013-05-31 13:01:00,
2013-05-31 08:11:00,66.0,64.0,-100.00,WSW,240,11.0,16.0,93,-99.99,,,-99.99,,2013-05-31 13:11:00,
2013-05-31 08:21:00,66.0,64.0,-100.00,WSW,240,11.0,16.0,93,-99.99,,,-99.99,,2013-05-31 13:21:00,
2013-05-31 08:32:00,67.0,64.0,-100.00,South,175,5.0,15.0,92,-99.99,,,-99.99,,2013-05-31 13:32:00,
2013-05-31 08:42:00,67.0,65.0,-100.00,South,175,10.0,17.0,92,-99.99,,,-99.99,,2013-05-31 13:42:00,
2013-05-31 08:52:00,67.0,65.0,-100.00,South,175,10.0,17.0,92,-99.99,,,-99.99,,2013-05-31 13:52:00,
2013-05-31 09:02:00,68.0,65.0,-100.00,SW,235,8.0,17.0,90,-99.99,,,-99.99,,2013-05-31 14:02:00,
2013-05-31 09:11:00,68.0,65.0,-100.00,SW,235,14.0,21.0,89,-99.99,,,-99.99,,2013-05-31 14:11:00,
2013-05-31 09:21:00,68.0,65.0,-100.00,SW,235,14.0,21.0,89,-99.99,,,-99.99,,2013-05-31 14:21:00,
2013-05-31 09:32:00,70.0,66.0,-100.00,NE,50,7.0,19.0,86,-99.99,,,-99.99,,2013-05-31 14:32:00,
2013-05-31 09:41:00,71.0,66.0,-100.00,NE,40,11.0,26.0,82,-99.99,,,-99.99,,2013-05-31 14:41:00,
2013-05-31 09:52:00,71.0,66.0,-100.00,NE,40,11.0,26.0,82,-99.99,,,-99.99,,2013-05-31 14:52:00,
2013-05-31 10:01:00,73.0,66.0,-100.00,NE,35,14.0,21.0,78,-99.99,,,-99.99,,2013-05-31 15:01:00,
2013-05-31 10:11:00,74.0,66.0,-100.00,NE,35,13.0,26.0,75,-99.99,,,-99.99,,2013-05-31 15:11:00,
2013-05-31 10:21:00,74.0,66.0,-100.00,NE,35,13.0,26.0,75,-99.99,,,-99.99,,2013-05-31 15:21:00,
2013-05-31 10:33:00,75.0,66.0,-100.00,NNE,30,10.0,24.0,74,-99.99,,,-99.99,,2013-05-31 15:33:00,
2013-05-31 10:43:00,74.0,66.0,-100.00,NE,35,16.0,25.0,76,-99.99,,,-99.99,,2013-05-31 15:43:00,
2013-05-31 10:53:00,74.0,66.0,-100.00,NE,35,16.0,25.0,76,-99.99,,,-99.99,,2013-05-31 15:53:00,
2013-05-31 11:03:00,73.0,65.0,-100.00,NE,35,19.0,24.0,77,-99.99,,,-99.99,,2013-05-31 16:03:00,
2013-05-31 11:12:00,73.0,65.0,-100.00,NE,40,15.0,26.0,77,-99.99,,,-99.99,,2013-05-31 16:12:00,
2013-05-31 11:22:00,73.0,65.0,-100.00,NE,40,15.0,26.0,77,-99.99,,,-99.99,,2013-05-31 16:22:00,
2013-05-31 11:33:00,72.0,65.0,-100.00,NE,40,14.0,22.0,79,-99.99,,,-99.99,,2013-05-31 16:33:00,
2013-05-31 11:42:00,72.0,65.0,-100.00,NE,40,13.0,19.0,79,-99.99,,,-99.99,,2013-05-31 16:42:00,
2013-05-31 11:52:00,72.0,65.0,-100.00,NE,40,13.0,19.0,79,-99.99,,,-99.99,,2013-05-31 16:52:00,
2013-05-31 12:02:00,71.0,64.0,-100.00,NE,40,15.0,22.0,79,-99.99,,,-99.99,,2013-05-31 17:02:00,
2013-05-31 12:12:00,70.0,64.0,-100.00,NE,45,16.0,25.0,80,-99.99,,,-99.99,,2013-05-31 17:12:00,
2013-05-31 12:22:00,70.0,64.0,-100.00,NE,45,16.0,25.0,80,-99.99,,,-99.99,,2013-05-31 17:22:00,
2013-05-31 12:32:00,69.0,64.0,-100.00,East,95,11.0,24.0,84,-99.99,,,-99.99,,2013-05-31 17:32:00,
2013-05-31 12:42:00,69.0,64.0,-100.00,SE,125,5.0,16.0,86,-99.99,,,-99.99,,2013-05-31 17:42:00,
2013-05-31 12:52:00,69.0,64.0,-100.00,SE,125,5.0,16.0,86,-99.99,,,-99.99,,2013-05-31 17:52:00,
2013-05-31 13:02:00,69.0,65.0,-100.00,SSE,160,4.0,9.0,87,-99.99,,,-99.99,,2013-05-31 18:02:00,
2013-05-31 13:11:00,70.0,66.0,-100.00,ESE,120,4.0,10.0,87,-99.99,,,-99.99,,2013-05-31 18:11:00,
2013-05-31 13:22:00,70.0,66.0,-100.00,ESE,120,4.0,10.0,87,-99.99,,,-99.99,,2013-05-31 18:22:00,
2013-05-31 13:32:00,70.0,66.0,-100.00,ESE,110,4.0,11.0,87,-99.99,,,-99.99,,2013-05-31 18:32:00,
2013-05-31 13:42:00,69.0,65.0,-100.00,SE,130,8.0,11.0,88,-99.99,,,-99.99,,2013-05-31 18:42:00,
2013-05-31 13:52:00,69.0,65.0,-100.00,SE,130,8.0,11.0,88,-99.99,,,-99.99,,2013-05-31 18:52:00,
2013-05-31 14:02:00,69.0,65.0,-100.00,SE,135,10.0,15.0,88,-99.99,,,-99.99,,2013-05-31 19:02:00,
2013-05-31 14:11:00,69.0,66.0,-100.00,SE,130,11.0,19.0,89,-99.99,,,-99.99,,2013-05-31 19:11:00,
2013-05-31 14:22:00,69.0,66.0,-100.00,SE,130,11.0,19.0,89,-99.99,,,-99.99,,2013-05-31 19:22:00,
2013-05-31 14:32:00,69.0,66.0,-100.00,SE,135,8.0,21.0,89,-99.99,,,-99.99,,2013-05-31 19:32:00,
2013-05-31 14:42:00,69.0,66.0,-100.00,SE,135,7.0,15.0,89,-99.99,,,-99.99,,2013-05-31 19:42:00,
2013-05-31 14:52:00,69.0,66.0,-100.00,SE,135,7.0,15.0,89,-99.99,,,-99.99,,2013-05-31 19:52:00,
2013-05-31 15:02:00,70.0,67.0,-100.00,SE,135,6.0,11.0,89,-99.99,,,-99.99,,2013-05-31 20:02:00,
2013-05-31 15:11:00,70.0,67.0,-100.00,SE,145,4.0,11.0,89,-99.99,,,-99.99,,2013-05-31 20:11:00,
2013-05-31 15:22:00,70.0,67.0,-100.00,SE,145,4.0,11.0,89,-99.99,,,-99.99,,2013-05-31 20:22:00,
2013-05-31 15:32:00,70.0,67.0,-100.00,SE,140,5.0,7.0,90,-99.99,,,-99.99,,2013-05-31 20:32:00,
2013-05-31 15:42:00,70.0,67.0,-100.00,SE,140,1.0,5.0,90,-99.99,,,-99.99,,2013-05-31 20:42:00,
2013-05-31 15:52:00,70.0,67.0,-100.00,SE,140,1.0,5.0,90,-99.99,,,-99.99,,2013-05-31 20:52:00,
2013-05-31 16:01:00,70.0,67.0,-100.00,SSE,155,8.0,10.0,91,-99.99,,,-99.99,,2013-05-31 21:01:00,
2013-05-31 16:11:00,70.0,67.0,-100.00,SSE,165,1.0,18.0,92,-99.99,,,-99.99,,2013-05-31 21:11:00,
2013-05-31 16:22:00,70.0,67.0,-100.00,SSE,165,1.0,18.0,92,-99.99,,,-99.99,,2013-05-31 21:22:00,
2013-05-31 16:32:00,70.0,68.0,-100.00,South,175,3.0,11.0,92,-99.99,,,-99.99,,2013-05-31 21:32:00,
2013-05-31 16:42:00,71.0,69.0,-100.00,SSW,195,5.0,8.0,92,-99.99,,,-99.99,,2013-05-31 21:42:00,
2013-05-31 16:54:00,71.0,69.0,-100.00,SSW,195,5.0,8.0,92,-99.99,,,-99.99,,2013-05-31 21:54:00,
2013-05-31 17:02:00,72.0,70.0,-100.00,SW,225,6.0,11.0,92,-99.99,,,-99.99,,2013-05-31 22:02:00,
2013-05-31 17:12:00,73.0,71.0,-100.00,SSE,155,4.0,8.0,92,-99.99,,,-99.99,,2013-05-31 22:12:00,
2013-05-31 17:22:00,73.0,71.0,-100.00,SSE,155,4.0,8.0,92,-99.99,,,-99.99,,2013-05-31 22:22:00,
2013-05-31 17:33:00,73.0,71.0,-100.00,ESE,120,9.0,15.0,92,-99.99,,,-99.99,,2013-05-31 22:33:00,
2013-05-31 17:42:00,74.0,71.0,-100.00,SE,130,4.0,11.0,91,-99.99,,,-99.99,,2013-05-31 22:42:00,
2013-05-31 17:53:00,74.0,71.0,-100.00,SE,130,4.0,11.0,91,-99.99,,,-99.99,,2013-05-31 22:53:00,
2013-05-31 18:02:00,74.0,71.0,-100.00,SE,135,9.0,16.0,91,-99.99,,,-99.99,,2013-05-31 23:02:00,
2013-05-31 18:12:00,75.0,72.0,-100.00,ESE,115,11.0,14.0,91,-99.99,,,-99.99,,2013-05-31 23:12:00,
2013-05-31 18:21:00,75.0,72.0,-100.00,ESE,115,11.0,14.0,91,-99.99,,,-99.99,,2013-05-31 23:21:00,
2013-05-31 18:32:00,76.0,73.0,-100.00,ESE,115,6.0,14.0,90,-99.99,,,-99.99,,2013-05-31 23:32:00,
2013-05-31 18:42:00,76.0,72.0,-100.00,East,95,7.0,13.0,89,-99.99,,,-99.99,,2013-05-31 23:42:00,
2013-05-31 18:52:00,76.0,72.0,-100.00,East,95,7.0,13.0,89,-99.99,,,-99.99,,2013-05-31 23:52:00,
2013-05-31 19:01:00,76.0,73.0,-100.00,SE,125,6.0,15.0,89,-99.99,,,-99.99,,2013-06-01 00:01:00,
2013-05-31 19:11:00,76.0,72.0,-100.00,ESE,115,7.0,12.0,88,-99.99,,,-99.99,,2013-06-01 00:11:00,
2013-05-31 19:22:00,76.0,72.0,-100.00,ESE,115,7.0,12.0,88,-99.99,,,-99.99,,2013-06-01 00:22:00,
2013-05-31 19:32:00,76.0,72.0,-100.00,ESE,110,4.0,11.0,88,-99.99,,,-99.99,,2013-06-01 00:32:00,
2013-05-31 19:42:00,76.0,72.0,-100.00,ESE,110,3.0,9.0,88,-99.99,,,-99.99,,2013-06-01 00:42:00,
2013-05-31 19:52:00,76.0,72.0,-100.00,ESE,110,3.0,9.0,88,-99.99,,,-99.99,,2013-06-01 00:52:00,
2013-05-31 20:01:00,76.0,73.0,-100.00,SE,140,6.0,13.0,89,-99.99,,,-99.99,,2013-06-01 01:01:00,
2013-05-31 20:11:00,76.0,73.0,-100.00,SSE,150,7.0,12.0,89,-99.99,,,-99.99,,2013-06-01 01:11:00,
2013-05-31 20:22:00,76.0,73.0,-100.00,SSE,150,7.0,12.0,89,-99.99,,,-99.99,,2013-06-01 01:22:00,
2013-05-31 20:32:00,76.0,73.0,-100.00,SSE,150,7.0,12.0,89,-99.99,,,-99.99,,2013-06-01 01:32:00,
2013-05-31 20:42:00,75.0,72.0,-100.00,SE,145,10.0,15.0,90,-99.99,,,-99.99,,2013-06-01 01:42:00,
2013-05-31 20:52:00,75.0,72.0,-100.00,SE,145,10.0,15.0,90,-99.99,,,-99.99,,2013-06-01 01:52:00,
2013-05-31 21:01:00,75.0,72.0,-100.00,SSE,155,8.0,16.0,91,-99.99,,,-99.99,,2013-06-01 02:01:00,
2013-05-31 21:11:00,74.0,72.0,-100.00,South,170,11.0,17.0,92,-99.99,,,-99.99,,2013-06-01 02:11:00,
2013-05-31 21:21:00,74.0,72.0,-100.00,South,170,11.0,17.0,92,-99.99,,,-99.99,,2013-06-01 02:21:00,
2013-05-31 21:32:00,74.0,72.0,-100.00,South,180,14.0,22.0,92,-99.99,,,-99.99,,2013-06-01 02:32:00,
2013-05-31 21:42:00,74.0,71.0,-100.00,South,185,4.0,12.0,92,-99.99,,,-99.99,,2013-06-01 02:42:00,
2013-05-31 21:52:00,74.0,71.0,-100.00,South,185,4.0,12.0,92,-99.99,,,-99.99,,2013-06-01 02:52:00,
2013-05-31 22:01:00,73.0,71.0,-100.00,South,190,6.0,10.0,92,-99.99,,,-99.99,,2013-06-01 03:01:00,
2013-05-31 22:11:00,70.0,68.0,-100.00,South,185,6.0,14.0,92,-99.99,,,-99.99,,2013-06-01 03:11:00,
2013-05-31 22:21:00,70.0,68.0,-100.00,South,185,6.0,14.0,92,-99.99,,,-99.99,,2013-06-01 03:21:00,
2013-05-31 22:33:00,70.0,67.0,-100.00,South,190,6.0,7.0,92,-99.99,,,-99.99,,2013-06-01 03:33:00,
2013-05-31 22:43:00,70.0,68.0,-100.00,SSW,200,6.0,11.0,92,-99.99,,,-99.99,,2013-06-01 03:43:00,
2013-05-31 22:53:00,70.0,68.0,-100.00,SSW,200,6.0,11.0,92,-99.99,,,-99.99,,2013-06-01 03:53:00,
2013-05-31 23:03:00,70.0,67.0,-100.00,SSW,200,4.0,7.0,92,-99.99,,,-99.99,,2013-06-01 04:03:00,
2013-05-31 23:12:00,69.0,67.0,-100.00,SSW,200,5.0,8.0,92,-99.99,,,-99.99,,2013-06-01 04:12:00,
2013-05-31 23:23:00,69.0,67.0,-100.00,SSW,200,5.0,8.0,92,-99.99,,,-99.99,,2013-06-01 04:23:00,
2013-05-31 23:33:00,69.0,66.0,-100.00,SSW,200,9.0,13.0,92,-99.99,,,-99.99,,2013-06-01 04:33:00,
2013-05-31 23:42:00,69.0,66.0,-100.00,South,190,9.0,16.0,91,-99.99,,,-99.99,,2013-06-01 04:42:00,
2013-05-31 23:53:00,69.0,66.0,-100.00,South,190,9.0,16.0,91,-99.99,,,-99.99,,2013-06-01 04:53:00,